EN

Hourly Weather Lagos

Today, 30 July, Friday

Time Temperature Precipitation Wind Pressure Humidity
00:00 +16°C° 0 mm 6 mps 761 mmHg 76%
01:00 +15°C° 0 mm 6 mps 761 mmHg 76%
02:00 +15°C° 0 mm 6 mps 761 mmHg 76%
03:00 +14°C° 0 mm 6 mps 761 mmHg 78%
04:00 +14°C° 0 mm 6 mps 761 mmHg 79%
05:00 +14°C° 0 mm 6 mps 761 mmHg 81%
06:00 +17°C° 0 mm 6 mps 761 mmHg 71%
07:00 +21°C° 0 mm 6 mps 761 mmHg 60%
08:00 +26°C° 0 mm 6 mps 761 mmHg 50%
09:00 +27°C° 0 mm 6 mps 761 mmHg 46%
10:00 +29°C° 0 mm 7 mps 761 mmHg 42%
11:00 +32°C° 0 mm 7 mps 761 mmHg 39%
12:00 +32°C° 0 mm 8 mps 761 mmHg 40%
13:00 +32°C° 0 mm 8 mps 761 mmHg 41%
14:00 +32°C° 0 mm 9 mps 761 mmHg 42%
15:00 +29°C° 0 mm 9 mps 761 mmHg 45%
16:00 +28°C° 0 mm 9 mps 761 mmHg 48%
17:00 +26°C° 0 mm 9 mps 761 mmHg 51%
18:00 +24°C° 0 mm 8 mps 762 mmHg 59%
19:00 +22°C° 0 mm 8 mps 762 mmHg 67%
20:00 +20°C° 0 mm 8 mps 762 mmHg 75%
21:00 +18°C° 0 mm 7 mps 763 mmHg 79%
22:00 +18°C° 0 mm 7 mps 763 mmHg 84%
23:00 +17°C° 0 mm 7 mps 763 mmHg 89%

Tomorrow, 31 July, Saturday

Time Temperature Precipitation Wind Pressure Humidity
00:00 +17°C° 0 mm 7 mps 763 mmHg 89%
01:00 +17°C° 0 mm 7 mps 763 mmHg 89%
02:00 +17°C° 0 mm 7 mps 762 mmHg 89%
03:00 +16°C° 0 mm 7 mps 763 mmHg 88%
04:00 +16°C° 0 mm 7 mps 763 mmHg 87%
05:00 +16°C° 0 mm 8 mps 763 mmHg 85%
06:00 +17°C° 0 mm 8 mps 763 mmHg 74%
07:00 +20°C° 0 mm 8 mps 763 mmHg 63%
08:00 +22°C° 0 mm 8 mps 763 mmHg 52%
09:00 +23°C° 0 mm 8 mps 763 mmHg 47%
10:00 +24°C° 0 mm 8 mps 763 mmHg 43%
11:00 +27°C° 0 mm 9 mps 763 mmHg 39%
12:00 +27°C° 0 mm 9 mps 763 mmHg 41%
13:00 +26°C° 0 mm 9 mps 763 mmHg 43%
14:00 +26°C° 0 mm 10 mps 763 mmHg 45%
15:00 +24°C° 0 mm 10 mps 763 mmHg 51%
16:00 +23°C° 0 mm 10 mps 763 mmHg 56%
17:00 +22°C° 0 mm 10 mps 763 mmHg 62%
18:00 +21°C° 0 mm 10 mps 763 mmHg 65%
19:00 +19°C° 0 mm 10 mps 763 mmHg 68%
20:00 +17°C° 0 mm 9 mps 763 mmHg 72%
21:00 +17°C° 0 mm 9 mps 763 mmHg 72%
22:00 +17°C° 0 mm 8 mps 764 mmHg 73%
23:00 +16°C° 0 mm 7 mps 764 mmHg 73%

Day after tomorrow, 1 August, Sunday

Time Temperature Precipitation Wind Pressure Humidity
00:00 +16°C° 0 mm 7 mps 763 mmHg 78%
01:00 +16°C° 0 mm 6 mps 763 mmHg 83%
02:00 +16°C° 0 mm 6 mps 763 mmHg 88%
03:00 +16°C° 0 mm 6 mps 763 mmHg 90%
04:00 +16°C° 0 mm 5 mps 763 mmHg 93%
05:00 +16°C° 0 mm 5 mps 763 mmHg 95%
06:00 +19°C° 0 mm 5 mps 763 mmHg 83%
07:00 +21°C° 0 mm 6 mps 763 mmHg 72%
08:00 +23°C° 0 mm 6 mps 763 mmHg 60%
09:00 +24°C° 0 mm 6 mps 763 mmHg 54%
10:00 +27°C° 0 mm 7 mps 763 mmHg 48%
11:00 +28°C° 0 mm 7 mps 762 mmHg 41%
12:00 +28°C° 0 mm 8 mps 762 mmHg 41%
13:00 +28°C° 0 mm 8 mps 762 mmHg 41%
14:00 +28°C° 0 mm 9 mps 761 mmHg 41%
15:00 +27°C° 0 mm 8 mps 761 mmHg 45%
16:00 +26°C° 0 mm 8 mps 761 mmHg 50%
17:00 +24°C° 0 mm 8 mps 761 mmHg 54%
18:00 +22°C° 0 mm 8 mps 761 mmHg 64%
19:00 +20°C° 0 mm 7 mps 762 mmHg 73%
20:00 +18°C° 0 mm 7 mps 762 mmHg 82%
21:00 +17°C° 0 mm 6 mps 762 mmHg 85%
22:00 +17°C° 0 mm 6 mps 761 mmHg 87%
23:00 +16°C° 0 mm 6 mps 761 mmHg 89%

2 August, Monday

Time Temperature Precipitation Wind Pressure Humidity
00:00 +16°C° 0 mm 6 mps 761 mmHg 89%
01:00 +16°C° 0 mm 6 mps 761 mmHg 89%
02:00 +16°C° 0 mm 6 mps 761 mmHg 89%
03:00 +16°C° 0 mm 5 mps 761 mmHg 90%
04:00 +16°C° 0 mm 5 mps 760 mmHg 90%
05:00 +15°C° 0 mm 5 mps 760 mmHg 91%
06:00 +19°C° 0 mm 5 mps 760 mmHg 77%
07:00 +22°C° 0 mm 5 mps 760 mmHg 64%
08:00 +25°C° 0 mm 5 mps 761 mmHg 50%
09:00 +27°C° 0 mm 5 mps 760 mmHg 45%
10:00 +28°C° 0 mm 6 mps 760 mmHg 41%
11:00 +30°C° 0 mm 6 mps 760 mmHg 36%
12:00 +30°C° 0 mm 7 mps 760 mmHg 36%
13:00 +31°C° 0 mm 8 mps 760 mmHg 37%
14:00 +31°C° 0 mm 8 mps 760 mmHg 37%
15:00 +28°C° 0 mm 8 mps 760 mmHg 42%
16:00 +27°C° 0 mm 8 mps 760 mmHg 47%
17:00 +24°C° 0 mm 8 mps 760 mmHg 52%
18:00 +22°C° 0 mm 8 mps 760 mmHg 63%
19:00 +20°C° 0 mm 8 mps 760 mmHg 74%
20:00 +17°C° 0 mm 8 mps 761 mmHg 85%
21:00 +17°C° 0 mm 7 mps 761 mmHg 86%
22:00 +16°C° 0 mm 7 mps 761 mmHg 87%
23:00 +16°C° 0 mm 7 mps 761 mmHg 88%

3 August, Tuesday

Time Temperature Precipitation Wind Pressure Humidity
00:00 +16°C° 0 mm 6 mps 761 mmHg 87%
01:00 +16°C° 0 mm 5 mps 761 mmHg 86%
02:00 +15°C° 0 mm 4 mps 761 mmHg 85%
03:00 +15°C° 0 mm 4 mps 761 mmHg 84%
04:00 +15°C° 0 mm 4 mps 761 mmHg 82%
05:00 +15°C° 0 mm 4 mps 761 mmHg 81%
06:00 +20°C° 0 mm 3 mps 761 mmHg 68%
07:00 +24°C° 0 mm 3 mps 762 mmHg 55%
08:00 +28°C° 0 mm 2 mps 762 mmHg 42%
09:00 +30°C° 0 mm 3 mps 762 mmHg 38%
10:00 +32°C° 0 mm 4 mps 762 mmHg 34%
11:00 +34°C° 0 mm 4 mps 762 mmHg 30%
12:00 +34°C° 0 mm 5 mps 762 mmHg 32%
13:00 +33°C° 0 mm 5 mps 762 mmHg 34%
14:00 +33°C° 0 mm 6 mps 761 mmHg 36%
15:00 +32°C° 0 mm 6 mps 761 mmHg 39%
16:00 +30°C° 0 mm 6 mps 761 mmHg 41%
17:00 +29°C° 0 mm 6 mps 761 mmHg 44%
18:00 +26°C° 0 mm 6 mps 761 mmHg 54%
19:00 +23°C° 0 mm 6 mps 762 mmHg 64%
20:00 +20°C° 0 mm 6 mps 762 mmHg 75%
21:00 +20°C° 0 mm 5 mps 762 mmHg 70%
22:00 +20°C° 0 mm 5 mps 762 mmHg 65%
23:00 +19°C° 0 mm 5 mps 762 mmHg 60%

4 August, Wednesday

Time Temperature Precipitation Wind Pressure Humidity
00:00 +19°C° 0 mm 5 mps 762 mmHg 59%
01:00 +17°C° 0 mm 5 mps 762 mmHg 58%
02:00 +17°C° 0 mm 5 mps 762 mmHg 57%
03:00 +17°C° 0 mm 5 mps 762 mmHg 65%
04:00 +16°C° 0 mm 5 mps 762 mmHg 73%
05:00 +16°C° 0 mm 5 mps 762 mmHg 80%
06:00 +20°C° 0 mm 5 mps 763 mmHg 72%
07:00 +23°C° 0 mm 5 mps 763 mmHg 64%
08:00 +27°C° 0 mm 5 mps 763 mmHg 56%
09:00 +29°C° 0 mm 5 mps 763 mmHg 51%
10:00 +32°C° 0 mm 6 mps 763 mmHg 45%
11:00 +34°C° 0 mm 6 mps 763 mmHg 40%
12:00 +33°C° 0 mm 7 mps 762 mmHg 40%
13:00 +33°C° 0 mm 8 mps 762 mmHg 41%
14:00 +33°C° 0 mm 8 mps 762 mmHg 42%
15:00 +32°C° 0 mm 8 mps 762 mmHg 45%
16:00 +29°C° 0 mm 8 mps 762 mmHg 49%
17:00 +28°C° 0 mm 9 mps 762 mmHg 53%
18:00 +26°C° 0 mm 8 mps 762 mmHg 59%
19:00 +23°C° 0 mm 8 mps 762 mmHg 65%
20:00 +22°C° 0 mm 8 mps 763 mmHg 71%
21:00 +21°C° 0 mm 8 mps 763 mmHg 72%
22:00 +21°C° 0 mm 8 mps 763 mmHg 73%
23:00 +21°C° 0 mm 8 mps 763 mmHg 73%
Show more